SCP
0 0 0 0 0 -0 -0 -0 -0 0 0 0 0 0 0 0 0 0 0 0 0 0 0 0 0 0 0 0 0 0 0 0 0 0 0 0 0 0 0 0 0 0 0 0 0 0 0 0 0 0 0 0 0 0
0 0 0 0 0 -0 -0 -0 -0 0 0 0 0 0 0 0 0 0 0 0 0 0 0 0 0 0 0 0 0 0 0 0 0 0 0 0 0 0 0 0 0 0 0 0 0 0 0 0 0 0 0 0 0 0
0 0 0 0 0 0 -0 -0 -0 0 -0 0 0 0 0 0 0 0 0 0 0 0 0 0 0 0 0 0 0 0 0 0 0 0 0 0 0 0 0 0 0 0 0 0 0 0 0 0 0 0 0 0 0 0
0 0 0 0 0 0 0 -0 -0 0 0 -0 -0 0 0 0 0 0 0 0 0 0 0 0 0 0 0 0 0 0 0 0 0 0 0 0 0 0 0 0 0 0 0 0 0 0 0 0 0 0 0 0 0 0
0 0 0 0 0 0 0 -0 0 -0 -0 -0 -0 -0 -0 0 0 0 0 0 -0 0 0 0 0 0 0 0 0 0 0 0 0 0 0 0 0 0 0 0 0 0 0 0 0 0 0 0 0 0 0 0 0 0
0 0 0 0 0 0 0 0 0 -0 -0 -0 -0 -0 -0 0 0 0 0 0 0 -0 0 0 0 0 0 0 0 0 0 0 0 0 0 0 0 0 0 0 0 0 0 0 0 0 0 0 0 0 0 0 0 0
0 0 0 0 0 0 0 0 0 0 -0 -0 -0 -0 -0 0 0 0 0 0 0 -0 0 0 0 0 0 0 0 0 0 0 0 0 0 0 0 0 0 0 0 0 0 0 0 0 0 0 0 0 0 0 0 0
0 0 0 0 0 0 0 0 0 0 -0 -0 -0 -0 0 0 0 0 0 0 0 0 0 0 0 0 0 0 0 0 0 0 0 0 0 0 0 0 0 0 0 0 0 0 0 0 0 0 0 0 0 0 0 0
0 0 0 0 0 0 0 0 0 0 -0 -0 -0 0 0 0 0 0 0 0 0 0 0 0 0 0 0 0 0 0 0 0 0 0 0 0 0 0 0 0 0 0 0 0 0 0 0 0 0 0 0 0 0 0
0 0 0 0 0 0 0 0 0 -0 -0 0 -0 -0 -0 0 0 0 0 0 0 0 0 0 0 0 0 0 0 0 0 0 0 0 0 0 0 0 0 0 0 0 0 0 0 0 0 0 0 0 0 0 0 0
0 0 0 0 0 0 0 0 0 -0 0 0 0 0 0 0 0 0 0 0 0 0 0 0 0 0 0 0 0 0 0 0 0 0 0 0 0 0 0 0 0 0 0 0 0 0 0 0 0 0 0 0 0 0
0 0 0 0 0 0 0 0 0 0 0 0 0 0 0 0 0 0 0 0 0 0 0 0 0 0 0 0 0 0 0 0 0 0 0 0 0 0 0 0 0 0 0 0 0 0 0 0 0 0 0 0 0 0
0 0 0 0 0 0 0 0 0 0 0 0 0 0 0 0 0 0 0 0 0 0 0 0 0 0 0 0 0 0 0 0 0 0 0 0 0 0 0 0 0 0 0 0 0 0 0 0 0 0 0 0 0 0
0 0 0 0 0 0 0 0 -0 0 0 0 0 0 0 0 0 0 0 0 0 0 0 0 0 0 0 0 0 0 0 0 0 0 0 0 0 0 0 0 0 0 0 0 0 0 0 0 0 0 0 0 0 0
0 0 0 0 0 0 0 -0 -0 0 0 0 0 0 0 0 0 0 0 0 0 0 0 0 0 0 0 0 0 0 0 0 0 0 0 0 0 0 0 0 0 0 0 0 0 0 0 0 0 0 0 0 0 0
0 0 0 0 0 0 -0 0 0 0 0 0 0 0 0 0 0 0 0 0 0 0 0 0 0 0 0 0 0 0 0 0 0 0 0 0 0 0 0 0 0 0 0 0 0 0 0 0 0 0 0 0 0 0
0 0 0 0 -0 -0 0 0 0 0 0 0 0 0 0 0 0 0 0 0 0 0 0 0 0 0 0 0 0 0 0 0 0 0 0 0 0 0 0 0 0 0 0 0 0 0 0 0 0 0 0 0 0 0
0 0 0 0 0 0 0 0 0 0 0 0 0 0 0 0 0 0 0 0 0 0 0 0 0 0 0 0 0 0 0 0 0 0 0 0 0 0 0 0 0 0 0 0 0 0 0 0 0 0 0 0 0 0
0 0 0 -0 0 0 0 0 0 0 0 0 0 0 0 0 0 0 0 0 0 0 0 0 0 0 0 0 0 0 0 0 0 0 0 0 0 -0 -0 0 0 0 0 0 0 0 0 0 -0 -0 0 -0 -0 -0
0 0 0 0 0 0 0 0 0 0 0 0 0 0 0 0 0 0 0 0 0 0 0 0 0 0 0 0 0 0 0 0 0 0 0 -0 -0 -0 0 0 0 0 0 0 0 0 -0 -0 -0 -0 -0 -0 -0 0
0 0 0 0 0 0 0 0 0 0 0 0 0 0 0 0 0 0 0 0 0 0 0 0 0 0 0 0 0 0 0 0 0 0 0 0 0 -0 0 0 0 0 0 0 0 0 -0 -0 -0 -0 -0 0 -0 -0
0 0 0 0 0 0 0 0 0 0 0 0 0 0 0 0 0 0 0 0 0 0 0 0 0 0 0 0 0 0 0 0 0 0 0 0 -0 -0 0 0 0 0 0 0 0 0 0 -0 0 0 -0 -0 -0 0
0 0 0 0 0 0 0 0 0 0 0 0 0 0 0 0 0 0 0 0 0 0 0 0 0 0 0 0 0 0 0 0 0 0 0 0 0 -0 -0 -0 -0 0 0 -0 -0 -0 0 0 -0 -0 0 -0 -0 0
0 0 0 0 0 0 0 0 0 0 0 0 0 0 0 0 0 0 0 0 0 0 0 -0 0 0 0 0 0 0 0 0 0 0 0 0 0 -0 -0 -0 -0 -0 0 -0 -0 -0 -0 -0 -0 -0 0 0 -0 -0
0 0 0 0 0 0 0 0 0 0 0 0 0 0 0 0 0 0 0 0 0 0 0 0 0 0 0 0 0 0 0 0 0 0 0 0 0 0 0 0 -0 -0 0 -0 -0 -0 -0 -0 -0 -0 -0 0 -0 -0
0 0 0 0 0 0 0 -0 0 0 -0 -0 -0 -0 -0 -0 -0 -0 -0 -0 0 0 -0 0 0 -0 0 0 0 0 0 0 0 0 0 0 -0 0 0 0 -0 -0 -0 -0 -0 -0 -0 -0 -0 -0 -0 -0 -0 -0
0 0 0 0 -0 -0 -0 0 -0 -0 -0 0 0 0 -0 -0 -0 0 -0 -0 -0 -0 -0 0 0 0 -0 0 0 0 0 0 0 0 0 0 0 0 0 -0 0 -0 0 -0 -0 -0 -0 -0 -0 -0 -0 -0 -0 -0
0 0 -0 0 0 0 0 -0 0 -0 -0 -0 0 0 -0 -0 -0 -0 -0 -0 0 -0 -0 -0 -0 0 0 -0 0 0 0 0 0 0 0 0 0 0 0 -0 -0 -0 0 -0 -0 -0 -0 -0 -0 -0 -0 -0 -0 -0
-0 0 0 -0 0 0 0 -0 -0 -0 0 -0 0 -0 -0 0 0 -0 -0 -0 0 0 -0 -0 -0 0 0 0 0 0 0 0 0 0 0 0 0 0 -0 0 -0 -0 -0 0 -0 -0 -0 -0 -0 -0 -0 -0 0 0
0 0 0 0 0 -0 -0 -0 -0 -0 -0 -0 -0 -0 -0 -0 -0 -0 -0 -0 -0 -0 -0 0 0 0 0 0 0 0 0 0 0 0 0 0 -0 -0 0 0 -0 -0 -0 -0 -0 0 0 0 0 0 0 0 0 0
0 0 0 0 -0 -0 -0 -0 -0 -0 -0 -0 -0 -0 -0 -0 -0 0 -0 -0 -0 -0 -0 -0 -0 0 0 0 0 0 0 0 0 -0 -0 0 0 0 -0 -0 -0 0 -0 0 0 0 0 0 0 0 0 -0 -0 -0
0 0 0 0 0 0 0 0 0 0 0 0 0 0 0 0 0 0 0 -0 -0 -0 -0 -0 -0 0 0 0 0 0 0 0 0 0 0 0 -0 0 0 -0 -0 -0 0 0 0 0 0 0 0 0 0 0 0 -0
0 0 0 0 0 0 0 0 0 0 0 0 0 0 0 0 0 0 0 -0 -0 -0 -0 -0 0 0 0 0 0 0 0 0 0 0 0 0 0 0 -0 -0 0 0 0 0 0 0 0 0 0 0 0 -0 0 0
Wind_Speed_500mb
42 38 38 39 40 42 42 42 42 41 41 40 37 36 36 35 33 26 18 14 11 11 34 38 36 20 9 6 5 9 5 2 1 5 7 7 8 9 7 4 8 14 9 10 5 12 26 7 16 18 4 30 35 26
43 38 39 40 42 43 43 43 42 40 41 40 39 36 36 36 35 30 17 16 20 26 28 44 55 56 46 26 5 6 5 5 2 2 2 4 5 6 6 10 3 9 9 4 11 3 8 12 14 12 18 29 23 20
44 44 43 43 43 43 43 42 42 42 41 40 39 38 36 35 34 32 30 21 21 19 33 18 3 4 18 47 50 11 7 5 2 3 2 2 5 5 9 9 8 7 8 5 8 9 1 7 11 18 24 25 17 7
44 45 48 48 47 45 44 43 41 42 42 40 39 39 39 35 32 33 33 24 16 13 9 9 3 6 21 12 31 56 20 9 5 6 1 2 5 6 2 2 6 3 18 14 3 6 5 13 17 23 21 18 14 9
42 47 49 49 51 51 47 45 42 43 43 41 40 42 40 35 29 30 34 20 12 8 9 21 35 3 3 11 17 26 52 27 5 5 3 3 2 5 2 3 7 14 10 12 11 30 21 32 32 29 20 13 8 5
44 47 51 53 53 54 54 50 45 42 43 43 44 45 39 31 24 22 7 3 4 7 8 8 12 4 7 7 15 22 33 28 12 6 5 5 7 5 6 7 11 19 22 19 4 21 19 25 33 28 19 11 8 6
46 50 53 54 55 56 55 52 48 42 43 44 46 44 34 24 21 11 4 4 5 6 5 12 13 5 7 4 12 19 26 13 13 7 10 11 9 8 6 23 18 15 24 29 24 33 15 32 23 30 19 13 7 5
48 51 54 56 57 56 53 51 48 42 42 44 44 38 23 12 6 7 7 4 7 7 6 6 7 9 15 2 6 13 12 16 14 7 4 8 7 7 9 14 29 19 16 21 30 31 20 29 25 25 20 13 11 8
55 56 57 57 56 52 49 49 50 42 44 43 37 25 8 2 5 5 6 8 12 8 6 4 5 3 17 5 2 6 10 7 6 7 7 9 8 10 16 22 25 32 28 30 39 20 20 24 23 19 19 19 15 10
58 59 57 50 49 47 48 48 46 40 43 36 23 5 3 4 4 14 3 4 10 8 9 8 5 6 9 7 3 4 2 3 6 5 8 8 10 31 30 25 25 23 38 29 32 16 18 20 22 23 27 19 15 13
57 50 50 49 47 46 43 42 40 35 34 21 12 6 6 6 8 5 6 7 6 6 11 11 13 7 4 4 3 2 0 2 5 5 6 6 7 8 16 21 31 25 37 30 33 20 17 15 17 25 28 24 22 17
47 51 52 48 43 40 38 34 27 24 25 32 26 31 17 6 5 5 5 3 8 5 10 7 6 10 5 4 5 1 4 2 6 2 5 5 5 9 10 6 11 28 29 31 21 12 11 15 23 19 24 25 20 18
47 47 45 40 38 35 33 24 18 25 30 18 4 5 3 3 2 8 8 6 4 5 9 9 4 4 3 4 4 3 6 5 1 6 6 4 12 4 10 18 30 27 22 14 5 4 6 11 14 16 18 19 20 20
46 47 39 36 31 20 25 22 21 22 14 5 3 7 7 7 7 6 4 4 3 6 1 1 2 2 2 4 2 6 1 3 5 5 4 6 12 16 23 21 17 13 6 5 3 7 13 16 16 17 19 21 23 24
38 37 34 29 24 27 29 27 22 12 6 6 4 7 9 8 8 2 6 1 3 3 3 2 6 3 2 4 1 4 5 6 5 3 6 16 11 21 20 13 6 7 3 4 11 16 19 20 21 23 24 26 27 27
38 36 29 29 30 33 34 31 19 6 6 7 10 7 9 6 6 1 6 10 12 3 3 1 3 1 3 3 4 9 4 5 2 4 3 13 15 12 9 5 7 2 7 10 10 12 15 17 18 20 23 24 24 21
37 32 36 36 34 29 26 21 6 8 8 8 8 11 15 15 13 12 8 7 8 5 3 4 3 5 4 4 6 6 4 3 9 2 15 20 14 11 4 3 2 4 6 6 8 14 19 18 14 13 14 13 11 8
37 34 32 31 31 25 15 7 7 7 11 13 10 7 8 14 12 14 14 9 10 4 3 5 5 5 7 7 6 4 3 4 2 9 17 14 16 11 7 9 7 8 9 8 8 12 19 19 16 12 6 10 10 9
33 30 25 19 15 11 6 4 8 9 13 13 15 22 19 19 28 31 32 31 27 25 9 7 10 8 11 9 10 10 12 9 6 3 15 22 11 17 14 15 15 7 4 11 14 14 18 17 13 13 9 9 15 29
24 17 12 9 8 4 5 7 7 12 8 8 18 17 16 19 26 31 26 23 23 13 14 10 13 18 12 17 21 18 7 4 6 7 9 31 25 15 19 17 14 8 2 6 13 12 14 21 24 27 28 25 32 32
8 6 9 7 5 12 7 6 8 9 14 11 19 19 16 21 20 16 16 18 19 12 15 34 36 35 39 32 24 17 22 12 16 14 11 20 13 11 21 20 14 8 4 2 6 10 19 19 23 23 22 23 29 34
5 9 9 6 5 5 8 10 10 15 11 14 15 10 13 10 9 9 9 14 12 25 37 42 42 43 43 43 39 28 21 17 16 17 12 7 11 11 26 25 21 14 11 10 10 11 18 21 18 20 22 30 21 15
10 5 5 6 5 6 6 10 8 7 6 7 9 7 7 7 7 5 8 12 11 10 16 27 44 51 52 54 58 52 43 33 26 28 24 12 10 9 16 23 22 21 16 16 17 18 18 16 10 9 14 15 8 8
6 5 5 5 10 6 6 7 9 8 8 6 5 7 6 7 7 7 6 5 5 12 18 24 19 21 28 35 38 43 47 44 38 34 26 21 20 15 15 15 21 22 21 18 19 21 21 17 16 18 15 15 12 10
5 6 6 8 7 7 5 6 7 6 5 4 6 7 5 6 4 5 4 8 21 24 38 21 18 8 11 14 20 29 38 40 37 37 23 32 27 17 13 18 20 21 18 20 25 28 25 24 22 20 18 20 19 17
6 8 10 6 7 7 5 6 5 4 6 5 7 9 7 4 5 5 1 7 14 19 41 37 28 24 7 5 10 15 24 33 42 43 39 33 30 21 19 19 20 23 24 20 18 24 26 26 25 23 24 23 22 22
6 5 10 11 8 7 8 11 15 10 8 6 5 4 4 6 5 5 9 7 25 39 56 51 31 36 20 12 4 14 18 25 39 39 27 32 34 31 29 26 27 23 16 10 15 20 26 27 30 31 31 29 29 29
10 6 6 3 5 7 8 8 7 7 6 7 4 5 6 5 5 2 6 37 54 61 43 38 37 20 13 21 12 17 20 22 23 31 39 40 36 35 35 31 29 25 20 17 13 13 19 24 27 27 29 34 37 38
10 9 7 16 11 10 10 12 11 11 7 7 6 8 8 13 23 43 64 60 55 49 48 29 25 22 9 14 14 15 21 26 27 31 36 32 31 38 35 33 29 25 30 33 31 31 30 22 27 31 30 31 30 28
9 14 9 7 8 11 16 21 17 23 29 30 29 37 52 63 68 69 58 34 31 27 27 33 31 16 6 16 18 20 21 22 20 22 24 28 30 29 31 30 26 21 24 25 22 21 22 31 30 29 26 27 28 27
7 8 8 11 12 23 38 37 44 48 55 52 46 47 54 35 33 8 12 34 36 14 14 13 8 7 6 8 14 14 7 8 15 20 24 27 28 30 30 32 30 23 19 15 14 14 14 15 22 33 41 40 35 30
11 18 9 7 12 26 36 13 6 8 8 6 5 2 1 6 9 12 23 42 21 6 1 3 5 7 11 7 9 13 8 5 3 1 4 16 28 34 34 34 31 23 19 20 20 18 15 16 20 26 29 31 31 31
11 16 18 10 9 9 6 7 6 6 8 6 4 3 3 4 6 11 26 33 22 14 2 5 8 10 10 5 9 14 13 12 9 6 5 4 5 17 36 39 38 37 36 31 27 23 20 18 18 22 29 34 34 26
Wind_Direction_500mb
337 333 331 331 334 338 340 341 343 345 347 346 344 344 344 343 341 341 322 288 262 260 271 261 256 244 249 260 281 348 272 103 305 166 195 169 205 182 188 189 200 230 221 234 212 244 254 158 133 204 96 132 142 145
342 337 332 331 330 331 333 335 337 339 342 343 340 338 337 336 336 333 332 301 276 261 266 278 275 267 252 234 287 315 320 286 349 71 211 139 172 176 186 233 139 209 234 224 224 264 346 287 287 150 140 139 150 159
346 345 338 332 330 329 328 327 330 333 336 338 337 334 332 331 329 324 322 312 292 280 297 290 312 38 239 237 226 231 257 245 78 50 132 63 232 166 191 219 174 196 170 203 193 182 18 103 124 137 136 132 141 172
345 348 348 346 339 332 329 325 325 327 329 331 332 330 327 324 321 315 314 308 289 277 287 278 270 317 290 245 219 221 233 170 76 6 259 251 260 204 246 352 243 134 165 166 218 231 192 222 196 176 174 174 186 219
339 342 343 344 345 342 336 328 324 323 325 326 326 324 322 317 314 312 308 290 256 237 293 292 305 149 283 215 217 210 212 226 316 321 250 248 185 203 183 259 237 192 171 193 219 191 193 192 187 184 190 192 207 205
332 332 334 335 336 336 337 335 328 323 322 323 322 319 317 307 307 321 313 3 251 245 300 305 323 49 30 205 209 206 204 213 210 216 234 246 230 241 237 241 257 222 223 222 281 197 193 176 182 190 198 198 203 208
329 329 329 329 329 330 330 332 331 326 322 322 322 320 314 294 283 270 251 339 320 306 297 296 309 317 354 197 178 182 190 189 191 213 219 236 218 200 262 254 270 265 241 232 231 169 156 180 194 200 202 210 223 224
324 324 324 323 323 325 325 327 329 332 327 323 323 321 319 317 202 202 225 252 263 291 286 290 284 313 6 221 168 167 163 187 208 232 208 217 163 214 248 245 246 249 230 209 194 194 211 196 195 199 212 227 226 246
323 321 320 321 321 319 321 325 328 328 330 325 323 324 302 151 137 190 253 263 231 235 287 251 282 338 345 24 148 155 179 189 194 230 217 177 185 219 225 235 241 234 207 203 181 188 179 194 205 213 223 229 226 249
322 320 318 318 320 319 318 322 325 320 329 328 322 327 229 174 239 293 251 213 193 214 226 253 237 268 328 339 97 199 174 205 216 177 146 221 244 252 254 249 258 257 215 195 171 162 182 206 217 227 231 231 234 252
322 321 320 319 317 317 316 317 323 328 330 345 327 274 256 281 285 217 224 218 172 233 211 236 222 278 293 284 334 13 77 186 245 140 238 215 250 247 273 269 245 241 203 189 200 218 217 246 253 246 243 241 245 253
322 326 325 322 320 317 315 312 314 330 335 322 298 285 295 212 208 235 223 185 218 244 194 208 228 216 268 267 274 122 278 200 245 101 238 243 249 287 296 267 194 174 174 172 185 206 245 266 257 264 254 248 246 256
323 331 333 330 327 326 323 305 306 322 328 318 287 277 259 196 186 221 208 205 235 204 204 202 194 209 247 250 254 265 235 235 290 221 240 283 341 357 119 124 127 135 141 147 179 239 267 271 272 264 252 235 244 265
323 326 329 331 328 335 332 322 310 321 326 293 270 292 219 204 234 212 263 288 331 317 249 6 149 12 353 239 260 248 134 253 241 242 246 14 347 141 131 125 124 127 131 151 210 283 288 283 268 258 248 244 252 266
311 325 334 330 320 321 321 324 324 317 290 274 247 243 235 261 274 283 339 96 343 44 152 139 70 329 43 279 336 309 241 242 234 301 355 339 137 136 128 123 109 138 170 287 300 297 292 283 270 260 256 256 261 269
314 325 327 324 317 317 317 316 315 306 253 250 239 260 246 278 253 74 18 37 19 13 321 206 101 30 271 295 236 215 248 238 42 350 329 129 126 105 77 95 125 80 319 314 322 328 323 308 290 273 263 259 261 262
314 313 317 315 315 317 311 308 285 235 240 241 252 254 264 277 266 277 268 346 352 304 269 72 321 239 128 229 239 215 250 357 342 211 167 143 130 133 124 236 58 15 6 11 17 7 1 348 331 298 268 255 244 245
303 311 316 317 319 324 309 218 240 248 249 250 255 274 260 259 274 275 286 270 321 278 224 237 192 238 233 199 212 191 172 354 115 174 185 167 174 241 243 177 148 77 53 22 354 345 349 344 331 323 268 204 195 163
309 312 313 315 317 320 301 244 234 268 248 266 265 277 275 274 279 277 272 268 257 248 267 240 240 213 222 221 224 194 187 176 132 117 193 150 183 261 221 204 194 174 52 21 11 1 6 16 50 62 79 149 156 151
311 311 314 303 255 255 273 275 265 272 279 304 288 275 275 269 276 277 268 254 232 204 207 228 229 225 214 239 235 216 172 190 225 256 230 192 192 215 208 201 199 208 242 16 13 32 68 85 82 87 87 102 134 143
300 293 316 338 243 224 268 286 268 264 293 284 285 290 275 270 265 258 256 215 198 218 230 234 240 239 242 253 248 260 239 235 234 198 191 206 222 239 205 201 194 198 192 190 46 95 118 111 92 100 92 108 123 132
268 309 320 297 241 250 260 245 256 287 273 268 291 253 265 267 259 229 196 191 225 232 233 243 245 241 238 240 238 245 241 254 249 257 270 276 247 265 211 208 216 220 209 194 171 146 144 132 104 104 113 126 130 150
286 299 249 238 225 240 258 260 259 257 269 278 290 263 245 254 241 214 237 221 242 270 280 274 265 259 249 250 247 245 235 240 257 239 249 285 262 274 219 213 222 229 223 206 203 206 201 195 191 174 166 195 204 192
260 244 244 241 210 258 262 244 238 253 267 261 256 270 262 268 295 249 253 190 51 358 15 360 315 250 244 242 240 239 236 242 251 240 232 237 275 278 243 229 230 240 235 221 207 206 214 223 219 204 211 211 207 202
239 228 217 244 228 238 247 245 225 236 265 257 252 257 256 268 258 244 254 26 11 11 0 2 17 356 241 237 242 236 224 224 230 233 227 253 264 261 272 239 243 241 234 228 218 211 209 209 215 216 208 210 220 227
244 213 193 237 208 217 233 266 243 267 261 258 255 270 298 262 254 276 12 323 321 340 355 354 350 357 355 351 249 233 224 216 218 233 243 238 245 262 266 245 246 243 245 251 241 219 204 209 216 220 226 227 226 227
254 238 224 240 263 310 302 276 277 262 258 254 265 262 257 239 242 221 269 313 322 329 338 337 335 331 309 302 267 193 196 202 207 218 212 223 239 253 243 240 234 235 256 237 222 215 208 210 217 220 223 227 230 234
243 280 243 248 263 270 294 269 249 244 232 233 266 252 282 224 267 234 267 329 330 329 318 319 331 334 260 257 235 197 197 205 206 215 226 233 237 227 218 222 220 232 228 222 230 222 217 224 227 230 234 239 246 249
232 233 242 261 253 246 239 229 239 241 239 223 259 272 263 262 291 300 298 305 306 309 309 310 340 355 289 225 214 231 231 226 223 227 231 225 214 206 213 213 221 226 234 244 253 255 248 246 242 243 246 249 256 270
244 207 219 245 229 230 229 217 241 253 264 267 272 278 280 282 288 293 300 312 302 278 266 291 318 356 154 218 235 243 232 227 226 209 199 197 201 196 206 216 234 255 253 254 257 249 247 235 237 239 246 251 260 268
241 198 234 236 255 255 263 276 278 278 276 271 268 265 272 291 308 352 356 347 338 304 253 261 282 332 345 238 220 196 190 181 194 197 197 200 201 207 218 235 246 261 245 246 253 252 255 246 248 245 245 253 255 258
206 210 212 236 267 285 305 268 246 255 272 270 282 207 234 230 269 334 355 354 15 60 142 284 117 65 35 26 217 230 271 188 126 62 277 245 233 220 230 239 246 246 250 258 251 248 254 268 270 261 256 253 246 261
234 234 233 260 266 278 261 262 256 268 258 271 280 271 257 269 302 353 358 8 22 37 91 255 291 307 318 312 225 219 238 242 233 223 261 298 297 252 231 228 234 242 252 251 243 245 253 262 271 265 255 251 250 251
Wind_Speed_850mb
42 38 38 39 40 42 42 42 42 41 41 40 37 36 36 35 33 26 18 14 11 11 34 38 36 20 9 6 5 9 5 2 1 5 7 7 8 9 7 4 8 14 9 10 5 12 26 7 16 18 4 30 35 26
43 38 39 40 42 43 43 43 42 40 41 40 39 36 36 36 35 30 17 16 20 26 28 44 55 56 46 26 5 6 5 5 2 2 2 4 5 6 6 10 3 9 9 4 11 3 8 12 14 12 18 29 23 20
44 44 43 43 43 43 43 42 42 42 41 40 39 38 36 35 34 32 30 21 21 19 33 18 3 4 18 47 50 11 7 5 2 3 2 2 5 5 9 9 8 7 8 5 8 9 1 7 11 18 24 25 17 7
44 45 48 48 47 45 44 43 41 42 42 40 39 39 39 35 32 33 33 24 16 13 9 9 3 6 21 12 31 56 20 9 5 6 1 2 5 6 2 2 6 3 18 14 3 6 5 13 17 23 21 18 14 9
42 47 49 49 51 51 47 45 42 43 43 41 40 42 40 35 29 30 34 20 12 8 9 21 35 3 3 11 17 26 52 27 5 5 3 3 2 5 2 3 7 14 10 12 11 30 21 32 32 29 20 13 8 5
44 47 51 53 53 54 54 50 45 42 43 43 44 45 39 31 24 22 7 3 4 7 8 8 12 4 7 7 15 22 33 28 12 6 5 5 7 5 6 7 11 19 22 19 4 21 19 25 33 28 19 11 8 6
46 50 53 54 55 56 55 52 48 42 43 44 46 44 34 24 21 11 4 4 5 6 5 12 13 5 7 4 12 19 26 13 13 7 10 11 9 8 6 23 18 15 24 29 24 33 15 32 23 30 19 13 7 5
48 51 54 56 57 56 53 51 48 42 42 44 44 38 23 12 6 7 7 4 7 7 6 6 7 9 15 2 6 13 12 16 14 7 4 8 7 7 9 14 29 19 16 21 30 31 20 29 25 25 20 13 11 8
55 56 57 57 56 52 49 49 50 42 44 43 37 25 8 2 5 5 6 8 12 8 6 4 5 3 17 5 2 6 10 7 6 7 7 9 8 10 16 22 25 32 28 30 39 20 20 24 23 19 19 19 15 10
58 59 57 50 49 47 48 48 46 40 43 36 23 5 3 4 4 14 3 4 10 8 9 8 5 6 9 7 3 4 2 3 6 5 8 8 10 31 30 25 25 23 38 29 32 16 18 20 22 23 27 19 15 13
57 50 50 49 47 46 43 42 40 35 34 21 12 6 6 6 8 5 6 7 6 6 11 11 13 7 4 4 3 2 0 2 5 5 6 6 7 8 16 21 31 25 37 30 33 20 17 15 17 25 28 24 22 17
47 51 52 48 43 40 38 34 27 24 25 32 26 31 17 6 5 5 5 3 8 5 10 7 6 10 5 4 5 1 4 2 6 2 5 5 5 9 10 6 11 28 29 31 21 12 11 15 23 19 24 25 20 18
47 47 45 40 38 35 33 24 18 25 30 18 4 5 3 3 2 8 8 6 4 5 9 9 4 4 3 4 4 3 6 5 1 6 6 4 12 4 10 18 30 27 22 14 5 4 6 11 14 16 18 19 20 20
46 47 39 36 31 20 25 22 21 22 14 5 3 7 7 7 7 6 4 4 3 6 1 1 2 2 2 4 2 6 1 3 5 5 4 6 12 16 23 21 17 13 6 5 3 7 13 16 16 17 19 21 23 24
38 37 34 29 24 27 29 27 22 12 6 6 4 7 9 8 8 2 6 1 3 3 3 2 6 3 2 4 1 4 5 6 5 3 6 16 11 21 20 13 6 7 3 4 11 16 19 20 21 23 24 26 27 27
38 36 29 29 30 33 34 31 19 6 6 7 10 7 9 6 6 1 6 10 12 3 3 1 3 1 3 3 4 9 4 5 2 4 3 13 15 12 9 5 7 2 7 10 10 12 15 17 18 20 23 24 24 21
37 32 36 36 34 29 26 21 6 8 8 8 8 11 15 15 13 12 8 7 8 5 3 4 3 5 4 4 6 6 4 3 9 2 15 20 14 11 4 3 2 4 6 6 8 14 19 18 14 13 14 13 11 8
37 34 32 31 31 25 15 7 7 7 11 13 10 7 8 14 12 14 14 9 10 4 3 5 5 5 7 7 6 4 3 4 2 9 17 14 16 11 7 9 7 8 9 8 8 12 19 19 16 12 6 10 10 9
33 30 25 19 15 11 6 4 8 9 13 13 15 22 19 19 28 31 32 31 27 25 9 7 10 8 11 9 10 10 12 9 6 3 15 22 11 17 14 15 15 7 4 11 14 14 18 17 13 13 9 9 15 29
24 17 12 9 8 4 5 7 7 12 8 8 18 17 16 19 26 31 26 23 23 13 14 10 13 18 12 17 21 18 7 4 6 7 9 31 25 15 19 17 14 8 2 6 13 12 14 21 24 27 28 25 32 32
8 6 9 7 5 12 7 6 8 9 14 11 19 19 16 21 20 16 16 18 19 12 15 34 36 35 39 32 24 17 22 12 16 14 11 20 13 11 21 20 14 8 4 2 6 10 19 19 23 23 22 23 29 34
5 9 9 6 5 5 8 10 10 15 11 14 15 10 13 10 9 9 9 14 12 25 37 42 42 43 43 43 39 28 21 17 16 17 12 7 11 11 26 25 21 14 11 10 10 11 18 21 18 20 22 30 21 15
10 5 5 6 5 6 6 10 8 7 6 7 9 7 7 7 7 5 8 12 11 10 16 27 44 51 52 54 58 52 43 33 26 28 24 12 10 9 16 23 22 21 16 16 17 18 18 16 10 9 14 15 8 8
6 5 5 5 10 6 6 7 9 8 8 6 5 7 6 7 7 7 6 5 5 12 18 24 19 21 28 35 38 43 47 44 38 34 26 21 20 15 15 15 21 22 21 18 19 21 21 17 16 18 15 15 12 10
5 6 6 8 7 7 5 6 7 6 5 4 6 7 5 6 4 5 4 8 21 24 38 21 18 8 11 14 20 29 38 40 37 37 23 32 27 17 13 18 20 21 18 20 25 28 25 24 22 20 18 20 19 17
6 8 10 6 7 7 5 6 5 4 6 5 7 9 7 4 5 5 1 7 14 19 41 37 28 24 7 5 10 15 24 33 42 43 39 33 30 21 19 19 20 23 24 20 18 24 26 26 25 23 24 23 22 22
6 5 10 11 8 7 8 11 15 10 8 6 5 4 4 6 5 5 9 7 25 39 56 51 31 36 20 12 4 14 18 25 39 39 27 32 34 31 29 26 27 23 16 10 15 20 26 27 30 31 31 29 29 29
10 6 6 3 5 7 8 8 7 7 6 7 4 5 6 5 5 2 6 37 54 61 43 38 37 20 13 21 12 17 20 22 23 31 39 40 36 35 35 31 29 25 20 17 13 13 19 24 27 27 29 34 37 38
10 9 7 16 11 10 10 12 11 11 7 7 6 8 8 13 23 43 64 60 55 49 48 29 25 22 9 14 14 15 21 26 27 31 36 32 31 38 35 33 29 25 30 33 31 31 30 22 27 31 30 31 30 28
9 14 9 7 8 11 16 21 17 23 29 30 29 37 52 63 68 69 58 34 31 27 27 33 31 16 6 16 18 20 21 22 20 22 24 28 30 29 31 30 26 21 24 25 22 21 22 31 30 29 26 27 28 27
7 8 8 11 12 23 38 37 44 48 55 52 46 47 54 35 33 8 12 34 36 14 14 13 8 7 6 8 14 14 7 8 15 20 24 27 28 30 30 32 30 23 19 15 14 14 14 15 22 33 41 40 35 30
11 18 9 7 12 26 36 13 6 8 8 6 5 2 1 6 9 12 23 42 21 6 1 3 5 7 11 7 9 13 8 5 3 1 4 16 28 34 34 34 31 23 19 20 20 18 15 16 20 26 29 31 31 31
11 16 18 10 9 9 6 7 6 6 8 6 4 3 3 4 6 11 26 33 22 14 2 5 8 10 10 5 9 14 13 12 9 6 5 4 5 17 36 39 38 37 36 31 27 23 20 18 18 22 29 34 34 26
Wind_Direction_850mb
337 333 331 331 334 338 340 341 343 345 347 346 344 344 344 343 341 341 322 288 262 260 271 261 256 244 249 260 281 348 272 103 305 166 195 169 205 182 188 189 200 230 221 234 212 244 254 158 133 204 96 132 142 145
342 337 332 331 330 331 333 335 337 339 342 343 340 338 337 336 336 333 332 301 276 261 266 278 275 267 252 234 287 315 320 286 349 71 211 139 172 176 186 233 139 209 234 224 224 264 346 287 287 150 140 139 150 159
346 345 338 332 330 329 328 327 330 333 336 338 337 334 332 331 329 324 322 312 292 280 297 290 312 38 239 237 226 231 257 245 78 50 132 63 232 166 191 219 174 196 170 203 193 182 18 103 124 137 136 132 141 172
345 348 348 346 339 332 329 325 325 327 329 331 332 330 327 324 321 315 314 308 289 277 287 278 270 317 290 245 219 221 233 170 76 6 259 251 260 204 246 352 243 134 165 166 218 231 192 222 196 176 174 174 186 219
339 342 343 344 345 342 336 328 324 323 325 326 326 324 322 317 314 312 308 290 256 237 293 292 305 149 283 215 217 210 212 226 316 321 250 248 185 203 183 259 237 192 171 193 219 191 193 192 187 184 190 192 207 205
332 332 334 335 336 336 337 335 328 323 322 323 322 319 317 307 307 321 313 3 251 245 300 305 323 49 30 205 209 206 204 213 210 216 234 246 230 241 237 241 257 222 223 222 281 197 193 176 182 190 198 198 203 208
329 329 329 329 329 330 330 332 331 326 322 322 322 320 314 294 283 270 251 339 320 306 297 296 309 317 354 197 178 182 190 189 191 213 219 236 218 200 262 254 270 265 241 232 231 169 156 180 194 200 202 210 223 224
324 324 324 323 323 325 325 327 329 332 327 323 323 321 319 317 202 202 225 252 263 291 286 290 284 313 6 221 168 167 163 187 208 232 208 217 163 214 248 245 246 249 230 209 194 194 211 196 195 199 212 227 226 246
323 321 320 321 321 319 321 325 328 328 330 325 323 324 302 151 137 190 253 263 231 235 287 251 282 338 345 24 148 155 179 189 194 230 217 177 185 219 225 235 241 234 207 203 181 188 179 194 205 213 223 229 226 249
322 320 318 318 320 319 318 322 325 320 329 328 322 327 229 174 239 293 251 213 193 214 226 253 237 268 328 339 97 199 174 205 216 177 146 221 244 252 254 249 258 257 215 195 171 162 182 206 217 227 231 231 234 252
322 321 320 319 317 317 316 317 323 328 330 345 327 274 256 281 285 217 224 218 172 233 211 236 222 278 293 284 334 13 77 186 245 140 238 215 250 247 273 269 245 241 203 189 200 218 217 246 253 246 243 241 245 253
322 326 325 322 320 317 315 312 314 330 335 322 298 285 295 212 208 235 223 185 218 244 194 208 228 216 268 267 274 122 278 200 245 101 238 243 249 287 296 267 194 174 174 172 185 206 245 266 257 264 254 248 246 256
323 331 333 330 327 326 323 305 306 322 328 318 287 277 259 196 186 221 208 205 235 204 204 202 194 209 247 250 254 265 235 235 290 221 240 283 341 357 119 124 127 135 141 147 179 239 267 271 272 264 252 235 244 265
323 326 329 331 328 335 332 322 310 321 326 293 270 292 219 204 234 212 263 288 331 317 249 6 149 12 353 239 260 248 134 253 241 242 246 14 347 141 131 125 124 127 131 151 210 283 288 283 268 258 248 244 252 266
311 325 334 330 320 321 321 324 324 317 290 274 247 243 235 261 274 283 339 96 343 44 152 139 70 329 43 279 336 309 241 242 234 301 355 339 137 136 128 123 109 138 170 287 300 297 292 283 270 260 256 256 261 269
314 325 327 324 317 317 317 316 315 306 253 250 239 260 246 278 253 74 18 37 19 13 321 206 101 30 271 295 236 215 248 238 42 350 329 129 126 105 77 95 125 80 319 314 322 328 323 308 290 273 263 259 261 262
314 313 317 315 315 317 311 308 285 235 240 241 252 254 264 277 266 277 268 346 352 304 269 72 321 239 128 229 239 215 250 357 342 211 167 143 130 133 124 236 58 15 6 11 17 7 1 348 331 298 268 255 244 245
303 311 316 317 319 324 309 218 240 248 249 250 255 274 260 259 274 275 286 270 321 278 224 237 192 238 233 199 212 191 172 354 115 174 185 167 174 241 243 177 148 77 53 22 354 345 349 344 331 323 268 204 195 163
309 312 313 315 317 320 301 244 234 268 248 266 265 277 275 274 279 277 272 268 257 248 267 240 240 213 222 221 224 194 187 176 132 117 193 150 183 261 221 204 194 174 52 21 11 1 6 16 50 62 79 149 156 151
311 311 314 303 255 255 273 275 265 272 279 304 288 275 275 269 276 277 268 254 232 204 207 228 229 225 214 239 235 216 172 190 225 256 230 192 192 215 208 201 199 208 242 16 13 32 68 85 82 87 87 102 134 143
300 293 316 338 243 224 268 286 268 264 293 284 285 290 275 270 265 258 256 215 198 218 230 234 240 239 242 253 248 260 239 235 234 198 191 206 222 239 205 201 194 198 192 190 46 95 118 111 92 100 92 108 123 132
268 309 320 297 241 250 260 245 256 287 273 268 291 253 265 267 259 229 196 191 225 232 233 243 245 241 238 240 238 245 241 254 249 257 270 276 247 265 211 208 216 220 209 194 171 146 144 132 104 104 113 126 130 150
286 299 249 238 225 240 258 260 259 257 269 278 290 263 245 254 241 214 237 221 242 270 280 274 265 259 249 250 247 245 235 240 257 239 249 285 262 274 219 213 222 229 223 206 203 206 201 195 191 174 166 195 204 192
260 244 244 241 210 258 262 244 238 253 267 261 256 270 262 268 295 249 253 190 51 358 15 360 315 250 244 242 240 239 236 242 251 240 232 237 275 278 243 229 230 240 235 221 207 206 214 223 219 204 211 211 207 202
239 228 217 244 228 238 247 245 225 236 265 257 252 257 256 268 258 244 254 26 11 11 0 2 17 356 241 237 242 236 224 224 230 233 227 253 264 261 272 239 243 241 234 228 218 211 209 209 215 216 208 210 220 227
244 213 193 237 208 217 233 266 243 267 261 258 255 270 298 262 254 276 12 323 321 340 355 354 350 357 355 351 249 233 224 216 218 233 243 238 245 262 266 245 246 243 245 251 241 219 204 209 216 220 226 227 226 227
254 238 224 240 263 310 302 276 277 262 258 254 265 262 257 239 242 221 269 313 322 329 338 337 335 331 309 302 267 193 196 202 207 218 212 223 239 253 243 240 234 235 256 237 222 215 208 210 217 220 223 227 230 234
243 280 243 248 263 270 294 269 249 244 232 233 266 252 282 224 267 234 267 329 330 329 318 319 331 334 260 257 235 197 197 205 206 215 226 233 237 227 218 222 220 232 228 222 230 222 217 224 227 230 234 239 246 249
232 233 242 261 253 246 239 229 239 241 239 223 259 272 263 262 291 300 298 305 306 309 309 310 340 355 289 225 214 231 231 226 223 227 231 225 214 206 213 213 221 226 234 244 253 255 248 246 242 243 246 249 256 270
244 207 219 245 229 230 229 217 241 253 264 267 272 278 280 282 288 293 300 312 302 278 266 291 318 356 154 218 235 243 232 227 226 209 199 197 201 196 206 216 234 255 253 254 257 249 247 235 237 239 246 251 260 268
241 198 234 236 255 255 263 276 278 278 276 271 268 265 272 291 308 352 356 347 338 304 253 261 282 332 345 238 220 196 190 181 194 197 197 200 201 207 218 235 246 261 245 246 253 252 255 246 248 245 245 253 255 258
206 210 212 236 267 285 305 268 246 255 272 270 282 207 234 230 269 334 355 354 15 60 142 284 117 65 35 26 217 230 271 188 126 62 277 245 233 220 230 239 246 246 250 258 251 248 254 268 270 261 256 253 246 261
234 234 233 260 266 278 261 262 256 268 258 271 280 271 257 269 302 353 358 8 22 37 91 255 291 307 318 312 225 219 238 242 233 223 261 298 297 252 231 228 234 242 252 251 243 245 253 262 271 265 255 251 250 251